Location: Mason
(37.5237°N, 89.2543°W)
Time: 08:20:13
(UTC+00:00)

Cosmos 1626 Rocket - Pass Details

Date: 24 January 2021
Orbit: 602 x 631 km, 82.5° (Epoch: 08 March)

Event Time Altitude Azimuth Distance (km) Brightness Sun altitude
Rises 23:40:31 0° 170° (S) 2,864 7.1 -6.0°
Reaches altitude 10° 23:42:48 10° 163° (SSE) 1,969 6.2 -6.4°
Maximum altitude 23:46:55 43° 92° (E) 875 3.9 -7.2°
Drops below altitude 10° 23:51:06 10° 21° (NNE) 2,000 5.8 -8.0°
Sets 23:53:26 0° 15° (NNE) 2,915 6.7 -8.4°
